Home > Weather > Woodstock > Past weeks

Flag for U.S.A. Weather for the Past 2 Weeks in Woodstock, New York, U.S.A.

Now
35 °F

Sunny.


Feels Like: 27 °F
Forecast: 26 / 33 °F
Wind: 10 mph from East

Location: Dutchess County Airport

Current Time: Feb 8, 2016 at 9:48:37 AM

Latest Report: Feb 8, 2016 at 8:53 AM


Visibility: 10 mi

Pressure: 29.82 "Hg

Humidity: 50%

Dew point: 18 °F

Location of WoodstockLocation

Historic Weather in Woodstock — Graph

°F

Woodstock Temperature Yesterday

Maximum temperature yesterday: 49 °F (at 2:53 PM)
Minimum temperature yesterday: 22 °F (at 5:53 AM)
Average temperature yesterday: 34 °F

High & Low Weather Summary for the Past Weeks

 TemperatureHumidityPressure
High63 °F (Feb 3, 6:53 PM)93% (Feb 4, 5:02 AM)30.40 "Hg (Feb 4, 5:02 AM)
Low18 °F (Jan 24, 7:53 AM)29% (Jan 24, 2:53 PM)29.46 "Hg (Jan 29, 8:53 AM)
Average37 °F60%30.00 "Hg
* Reported Jan 24 7:53 AM — Feb 8 7:53 AM, Woodstock, Weather by CustomWeather, © 2016

Note: Actual official high and low records may vary slightly from our data, if they occured in-between our weather recording intervals... More about our weather records

Advertising

Woodstock Weather History for the Previous 24 Hours

 ConditionsComfort  
Time TempWeatherWind HumidityBarometerVisibility
7:53 AM
Mon, Feb 8
36 °FPartly sunny.9 mph54%29.82 "Hg10 mi
6:53 AM37 °FOvercast.8 mph62%29.80 "Hg10 mi
5:53 AM36 °FOvercast.9 mph64%29.78 "Hg10 mi
4:53 AM35 °FOvercast.7 mph64%29.77 "Hg10 mi
3:53 AM34 °FOvercast.6 mph67%29.79 "Hg10 mi
2:53 AM33 °FClear.7 mph66%29.84 "Hg10 mi
1:53 AM33 °FClear.7 mph63%29.88 "Hg10 mi
12:53 AM30 °FClear.3 mph72%29.91 "Hg10 mi
11:53 PM
Sun, Feb 7
31 °FClear.No wind67%29.94 "Hg10 mi
10:53 PM31 °FClear.No wind67%29.96 "Hg4 mi
9:53 PM31 °FClear.No wind69%29.98 "Hg10 mi
8:53 PM32 °FClear.No wind66%30.00 "Hg10 mi
7:53 PM33 °FClear.3 mph61%30.00 "Hg10 mi
6:53 PM40 °FClear.3 mph45%30.02 "Hg10 mi
5:53 PM42 °FClear.6 mph41%30.01 "Hg10 mi
4:53 PM47 °FSunny.No wind32%30.01 "Hg10 mi
3:53 PM49 °FSunny.3 mph29%30.02 "Hg10 mi
2:53 PM49 °FSunny.5 mph29%30.05 "Hg10 mi
1:53 PM48 °FSunny.7 mph33%30.08 "Hg10 mi
12:53 PM47 °FSunny.No wind30%30.09 "Hg10 mi
11:53 AM44 °FSunny.No wind38%30.11 "Hg10 mi
10:53 AM41 °FSunny.No wind47%30.15 "Hg10 mi
9:53 AM38 °FSunny.3 mph53%30.16 "Hg10 mi
Weather by CustomWeather, © 2016

See weather overviewHow to use our weather pages